Showing default

COSMOS 2488, 39483

Orbit data source: Space-Track

COSMOS 2488, 39483 is a payload satellite owned by VVKO (CIS) in LEO that was launched on Wed, 25 Dec 2013 UTC via an ROKOT launch vehicle from the Plesetsk Missile And Space Complex (PKMTR). Payloads include a variety of satellites, spacecraft, and rockets equipped with specific instruments for various scientific and technological missions. These include communications satellites like Starlink; space stations such as the ISS; scientific satellites like the Hubble; Earth observation satellites from companies like Planet Labs, Umbra, and HawkEye 360; GPS; miniature CubeSats for education and research; and military/defense satellites.

Loading next visibility...
COSMOS 2488 details
Identifier
39483, 2013-076A
Orbit
LEO
Last TLE update9 hours ago
Origin
Flag of CISVVKO (CIS)
ManufacturerResehetnev ISS
MissionOperational Civil Communications
Bus & MotorSTRELA-3M, Unknown motor
Mass280 kg wet, 280 kg dry
Launch date (UTC)
2013-12-25 (11 years ago)
Launch vehicle
ROKOT
Launch site
Plesetsk Missile And Space Complex (PKMTR)
Object type
Payload
Rocket body
Debris
Shape & HBRCyl + 1 Ant, 7 m
Radar Cross Section1.583 m², Large (>1 m²)

Expand to show TLE details & history

TLE from 9 hours ago
0 COSMOS 2488
1 39483U 13076A   24361.07204921  .00000045  00000-0  25128-3 0  9995
2 39483  82.4838 144.0507 0019502 185.9473 174.1378 12.42898789499233
Epoch: 2024-12-26T01:43Z
Definitive object data (Epoch: 2024-12-26T01:43:45.051Z)
Latitude-0.00003°
Longitude23.05628°
Altitude1,512.314 km
Speed7.102 km/s
True Right ascension09h 36m 12s
True Declination0° 00' 00"
Sunlit
Object was in full shadow at TLE epoch
Visualization TLE readout
Latitude-2.01997°
Longitude-156.90435°
Altitude1,481.992 km
Speed7.129 km/s
Apparent Right ascension21h 40m 30s
Apparent Declination-18° 49' 23"
Sunlit
Object is in daylight
Visualization observer readout
Local Sidereal Time09:47:08
Azimuth4.362° NNE
Elevation-68.858°
Doppler factor1
Orbital elements
Apogee altitude1,507.038 km
Perigee altitude1,476.343 km
Semi-major axis7,869.828 km
Eccentricity0.0019502
Inclination82.4838°
RAAN144.0507°
Arg. of periapsis185.9473°
True anomaly174.16057°
Mean anomaly174.1378°
Eccentric anomaly174.14919°
Mean motion3.10882 °/min
BSTAR0.00025128
Orbital period115.8 mins
Loading maneuver chart data...
Loading historical data...
Loading historical data...
Loading historical data...
Loading historical data...
Loading historical data...
Loading historical data...
Loading historical data...

COSMOS 2488 Visibility forecast

Observer location: undefined°, undefined

Span
Click to sort rows by Start time (UTC) header in descending order
Start Az.
Max El. time (UTC)
Max El. Az.
Max El.
End time (UTC)
End Az.
16 mins2024-12-26 11:28:57.667Z216.995° SW2024-12-26 11:36:57.667Z284.924° WNW34.245°2024-12-26 11:44:57.667Z354.813° N
9 mins2024-12-26 19:45:57.667Z32.01° NE2024-12-26 19:49:57.667Z63.77° ENE17.991°2024-12-26 19:54:57.667Z101.584° ESE
15 mins2024-12-26 21:40:57.667Z351.741° N2024-12-26 21:47:57.667Z240.909° WSW44.976°2024-12-26 21:55:57.667Z175.992° S
8 mins2024-12-26 23:39:57.667Z308.821° NW2024-12-26 23:42:57.667Z286.417° WNW15.597°2024-12-26 23:47:57.667Z249.971° W
10 mins2024-12-27 08:46:57.667Z116.794° SE2024-12-27 08:51:57.667Z76.469° E20.381°2024-12-27 08:56:57.667Z38.632° NE
|